<?xml version="1.0" encoding="UTF-8" standalone="no" ?><gpx xmlns="http://www.topografix.com/GPX/1/1" xmlns:gpxx="http://www.garmin.com/xmlschemas/GpxExtensions/v3" xmlns:wptx1="http://www.garmin.com/xmlschemas/WaypointExtension/v1" xmlns:gpxtpx="http://www.garmin.com/xmlschemas/TrackPointExtension/v1" creator="GuideVTT.com" version="1.1" xmlns:xsi="http://www.w3.org/2001/XMLSchema-instance" xsi:schemaLocation="http://www.topografix.com/GPX/1/1 http://www.topografix.com/GPX/1/1/gpx.xsd http://www.garmin.com/xmlschemas/GpxExtensions/v3 http://www8.garmin.com/xmlschemas/GpxExtensionsv3.xsd http://www.garmin.com/xmlschemas/WaypointExtension/v1 http://www8.garmin.com/xmlschemas/WaypointExtensionv1.xsd http://www.garmin.com/xmlschemas/TrackPointExtension/v1 http://www.garmin.com/xmlschemas/TrackPointExtensionv1.xsd">
<metadata><link href="http://www.garmin.com"><text>Garmin International</text></link><time>2013-06-22T15:13:50Z</time></metadata>
<trk><name>tentlingen_buchekappeli_stursen.gpx</name><extensions><gpxx:TrackExtension><gpxx:DisplayColor>Cyan</gpxx:DisplayColor></gpxx:TrackExtension></extensions><trkseg>
<trkpt lat="46.77019100" lon="7.19688000"><ele>711.512939</ele><time>2009-06-15T21:15:00Z</time></trkpt>
<trkpt lat="46.76995600" lon="7.19744200"><ele>714.877441</ele><time>2009-06-15T21:15:00Z</time></trkpt>
<trkpt lat="46.76950600" lon="7.19803200"><ele>717.281006</ele><time>2009-06-15T21:15:00Z</time></trkpt>
<trkpt lat="46.76859000" lon="7.19894200"><ele>718.242188</ele><time>2009-06-15T21:15:00Z</time></trkpt>
<trkpt lat="46.76767100" lon="7.20019500"><ele>716.800293</ele><time>2009-06-15T21:15:00Z</time></trkpt>
<trkpt lat="46.76685300" lon="7.20110900"><ele>717.761475</ele><time>2009-06-15T21:15:00Z</time></trkpt>
<trkpt lat="46.76624500" lon="7.20148800"><ele>721.126221</ele><time>2009-06-15T21:15:00Z</time></trkpt>
<trkpt lat="46.76544000" lon="7.20237200"><ele>723.529541</ele><time>2009-06-15T21:15:00Z</time></trkpt>
<trkpt lat="46.76528300" lon="7.20237000"><ele>722.568115</ele><time>2009-06-15T21:15:00Z</time></trkpt>
<trkpt lat="46.76502500" lon="7.20209100"><ele>720.164795</ele><time>2009-06-15T21:15:00Z</time></trkpt>
<trkpt lat="46.76449700" lon="7.20206200"><ele>719.684326</ele><time>2009-06-15T21:15:00Z</time></trkpt>
<trkpt lat="46.76350600" lon="7.20263500"><ele>718.7229</ele><time>2009-06-15T21:15:00Z</time></trkpt>
<trkpt lat="46.76308300" lon="7.20285000"><ele>709.590332</ele><time>2009-06-15T21:15:00Z</time></trkpt>
<trkpt lat="46.76241300" lon="7.20303600"><ele>702.380371</ele><time>2009-06-15T21:15:00Z</time></trkpt>
<trkpt lat="46.76148800" lon="7.20337500"><ele>700.938477</ele><time>2009-06-15T21:15:00Z</time></trkpt>
<trkpt lat="46.76119100" lon="7.20396000"><ele>703.341797</ele><time>2009-06-15T21:15:00Z</time></trkpt>
<trkpt lat="46.76109100" lon="7.20433200"><ele>707.187012</ele><time>2009-06-15T21:15:00Z</time></trkpt>
<trkpt lat="46.76062800" lon="7.20495500"><ele>714.396729</ele><time>2009-06-15T21:15:00Z</time></trkpt>
<trkpt lat="46.76043700" lon="7.20504600"><ele>716.31958</ele><time>2009-06-15T21:15:00Z</time></trkpt>
<trkpt lat="46.75978900" lon="7.20456700"><ele>722.087402</ele><time>2009-06-15T21:15:00Z</time></trkpt>
<trkpt lat="46.75941900" lon="7.20459700"><ele>719.203613</ele><time>2009-06-15T21:15:00Z</time></trkpt>
<trkpt lat="46.75890200" lon="7.20532700"><ele>714.877441</ele><time>2009-06-15T21:15:00Z</time></trkpt>
<trkpt lat="46.75835000" lon="7.20537100"><ele>717.281006</ele><time>2009-06-15T21:15:00Z</time></trkpt>
<trkpt lat="46.75786800" lon="7.20627100"><ele>722.087402</ele><time>2009-06-15T21:15:00Z</time></trkpt>
<trkpt lat="46.75734200" lon="7.20677400"><ele>723.048828</ele><time>2009-06-15T21:15:00Z</time></trkpt>
<trkpt lat="46.75680900" lon="7.20690000"><ele>726.894043</ele><time>2009-06-15T21:15:00Z</time></trkpt>
<trkpt lat="46.75680800" lon="7.20717600"><ele>726.894043</ele><time>2009-06-15T21:15:00Z</time></trkpt>
<trkpt lat="46.75747100" lon="7.20872100"><ele>731.219971</ele><time>2009-06-15T21:15:00Z</time></trkpt>
<trkpt lat="46.75614700" lon="7.20850800"><ele>724.490723</ele><time>2009-06-15T21:15:00Z</time></trkpt>
<trkpt lat="46.75549000" lon="7.20897700"><ele>722.087402</ele><time>2009-06-15T21:15:00Z</time></trkpt>
<trkpt lat="46.75495900" lon="7.20984900"><ele>714.877441</ele><time>2009-06-15T21:15:00Z</time></trkpt>
<trkpt lat="46.75428400" lon="7.21021000"><ele>713.435547</ele><time>2009-06-15T21:15:00Z</time></trkpt>
<trkpt lat="46.75189100" lon="7.21068200"><ele>719.203613</ele><time>2009-06-15T21:15:00Z</time></trkpt>
<trkpt lat="46.75141300" lon="7.21126400"><ele>724.01001</ele><time>2009-06-15T21:15:00Z</time></trkpt>
<trkpt lat="46.75118000" lon="7.21179500"><ele>728.335938</ele><time>2009-06-15T21:15:00Z</time></trkpt>
<trkpt lat="46.75096900" lon="7.21356600"><ele>749.96582</ele><time>2009-06-15T21:15:00Z</time></trkpt>
<trkpt lat="46.75077500" lon="7.21452400"><ele>763.424072</ele><time>2009-06-15T21:15:00Z</time></trkpt>
<trkpt lat="46.75042400" lon="7.21510800"><ele>774.959961</ele><time>2009-06-15T21:15:00Z</time></trkpt>
<trkpt lat="46.75004500" lon="7.21541800"><ele>778.805176</ele><time>2009-06-15T21:15:00Z</time></trkpt>
<trkpt lat="46.74991900" lon="7.21564200"><ele>776.882568</ele><time>2009-06-15T21:15:00Z</time></trkpt>
<trkpt lat="46.75004500" lon="7.21720100"><ele>776.401855</ele><time>2009-06-15T21:15:00Z</time></trkpt>
<trkpt lat="46.74993100" lon="7.21756200"><ele>776.882568</ele><time>2009-06-15T21:15:00Z</time></trkpt>
<trkpt lat="46.74894100" lon="7.21924200"><ele>786.015137</ele><time>2009-06-15T21:15:00Z</time></trkpt>
<trkpt lat="46.74770100" lon="7.22085900"><ele>795.147461</ele><time>2009-06-15T21:15:00Z</time></trkpt>
<trkpt lat="46.74737100" lon="7.22217100"><ele>804.280273</ele><time>2009-06-15T21:15:00Z</time></trkpt>
<trkpt lat="46.74677000" lon="7.22303600"><ele>808.125488</ele><time>2009-06-15T21:15:00Z</time></trkpt>
<trkpt lat="46.74615400" lon="7.22333800"><ele>810.047852</ele><time>2009-06-15T21:15:00Z</time></trkpt>
<trkpt lat="46.74543700" lon="7.22355700"><ele>810.528564</ele><time>2009-06-15T21:15:00Z</time></trkpt>
<trkpt lat="46.74431000" lon="7.22353500"><ele>811.970703</ele><time>2009-06-15T21:15:00Z</time></trkpt>
<trkpt lat="46.74405900" lon="7.22331600"><ele>811.970703</ele><time>2009-06-15T21:15:00Z</time></trkpt>
<trkpt lat="46.74332800" lon="7.22176400"><ele>820.622559</ele><time>2009-06-15T21:15:00Z</time></trkpt>
<trkpt lat="46.74312900" lon="7.22150800"><ele>824.948486</ele><time>2009-06-15T21:15:00Z</time></trkpt>
<trkpt lat="46.74260700" lon="7.22335600"><ele>838.887695</ele><time>2009-06-15T21:15:00Z</time></trkpt>
<trkpt lat="46.74239700" lon="7.22446800"><ele>843.213379</ele><time>2009-06-15T21:15:00Z</time></trkpt>
<trkpt lat="46.74182900" lon="7.22634300"><ele>851.865479</ele><time>2009-06-15T21:15:00Z</time></trkpt>
<trkpt lat="46.74149900" lon="7.22680200"><ele>855.22998</ele><time>2009-06-15T21:15:00Z</time></trkpt>
<trkpt lat="46.74108000" lon="7.22716000"><ele>857.633301</ele><time>2009-06-15T21:15:00Z</time></trkpt>
<trkpt lat="46.74062100" lon="7.22701700"><ele>857.633301</ele><time>2009-06-15T21:15:00Z</time></trkpt>
<trkpt lat="46.74032500" lon="7.22706500"><ele>852.82666</ele><time>2009-06-15T21:15:00Z</time></trkpt>
<trkpt lat="46.73880800" lon="7.22803900"><ele>845.616943</ele><time>2009-06-15T21:15:00Z</time></trkpt>
<trkpt lat="46.73769000" lon="7.22926800"><ele>843.213379</ele><time>2009-06-15T21:15:00Z</time></trkpt>
<trkpt lat="46.73707000" lon="7.23038000"><ele>842.73291</ele><time>2009-06-15T21:15:00Z</time></trkpt>
<trkpt lat="46.73604700" lon="7.23127300"><ele>844.175049</ele><time>2009-06-15T21:15:00Z</time></trkpt>
<trkpt lat="46.73548200" lon="7.23254800"><ele>850.904053</ele><time>2009-06-15T21:15:00Z</time></trkpt>
<trkpt lat="46.73535200" lon="7.23301300"><ele>853.788086</ele><time>2009-06-15T21:15:00Z</time></trkpt>
<trkpt lat="46.73520400" lon="7.23300400"><ele>847.058838</ele><time>2009-06-15T21:15:00Z</time></trkpt>
<trkpt lat="46.73463800" lon="7.23368200"><ele>826.871094</ele><time>2009-06-15T21:15:00Z</time></trkpt>
<trkpt lat="46.73464300" lon="7.23424500"><ele>824.467773</ele><time>2009-06-15T21:15:00Z</time></trkpt>
<trkpt lat="46.73492900" lon="7.23566900"><ele>823.025879</ele><time>2009-06-15T21:15:00Z</time></trkpt>
<trkpt lat="46.73513500" lon="7.23636700"><ele>821.103271</ele><time>2009-06-15T21:15:00Z</time></trkpt>
<trkpt lat="46.73524700" lon="7.23651900"><ele>818.219238</ele><time>2009-06-15T21:15:00Z</time></trkpt>
<trkpt lat="46.73524500" lon="7.23766300"><ele>800.915527</ele><time>2009-06-15T21:15:00Z</time></trkpt>
<trkpt lat="46.73515600" lon="7.23965100"><ele>798.031738</ele><time>2009-06-15T21:15:00Z</time></trkpt>
<trkpt lat="46.73500200" lon="7.24061800"><ele>792.263672</ele><time>2009-06-15T21:15:00Z</time></trkpt>
<trkpt lat="46.73512300" lon="7.24117700"><ele>798.99292</ele><time>2009-06-15T21:15:00Z</time></trkpt>
<trkpt lat="46.73518000" lon="7.24182400"><ele>800.915527</ele><time>2009-06-15T21:15:00Z</time></trkpt>
<trkpt lat="46.73509300" lon="7.24399000"><ele>799.473633</ele><time>2009-06-15T21:15:00Z</time></trkpt>
<trkpt lat="46.73491600" lon="7.24480900"><ele>802.357422</ele><time>2009-06-15T21:15:00Z</time></trkpt>
<trkpt lat="46.73452300" lon="7.24575200"><ele>805.241455</ele><time>2009-06-15T21:15:00Z</time></trkpt>
<trkpt lat="46.73378000" lon="7.24577600"><ele>809.08667</ele><time>2009-06-15T21:15:00Z</time></trkpt>
<trkpt lat="46.73339300" lon="7.24611600"><ele>810.528564</ele><time>2009-06-15T21:15:00Z</time></trkpt>
<trkpt lat="46.73325800" lon="7.24669200"><ele>811.970703</ele><time>2009-06-15T21:15:00Z</time></trkpt>
<trkpt lat="46.73287900" lon="7.24667700"><ele>812.932129</ele><time>2009-06-15T21:15:00Z</time></trkpt>
<trkpt lat="46.73176600" lon="7.24620600"><ele>818.219238</ele><time>2009-06-15T21:15:00Z</time></trkpt>
<trkpt lat="46.73035000" lon="7.24527000"><ele>824.948486</ele><time>2009-06-15T21:15:00Z</time></trkpt>
<trkpt lat="46.72947000" lon="7.24508900"><ele>829.755127</ele><time>2009-06-15T21:15:00Z</time></trkpt>
<trkpt lat="46.72825000" lon="7.24522200"><ele>833.600342</ele><time>2009-06-15T21:15:00Z</time></trkpt>
<trkpt lat="46.72639800" lon="7.24580300"><ele>841.290771</ele><time>2009-06-15T21:15:00Z</time></trkpt>
<trkpt lat="46.72510800" lon="7.24586000"><ele>845.616943</ele><time>2009-06-15T21:15:00Z</time></trkpt>
<trkpt lat="46.72437800" lon="7.24574500"><ele>848.500732</ele><time>2009-06-15T21:15:00Z</time></trkpt>
<trkpt lat="46.72335200" lon="7.24585100"><ele>852.82666</ele><time>2009-06-15T21:15:00Z</time></trkpt>
<trkpt lat="46.72274000" lon="7.24580000"><ele>854.268799</ele><time>2009-06-15T21:15:00Z</time></trkpt>
<trkpt lat="46.72214900" lon="7.24602100"><ele>855.22998</ele><time>2009-06-15T21:15:00Z</time></trkpt>
<trkpt lat="46.72103300" lon="7.24563100"><ele>862.920654</ele><time>2009-06-15T21:15:00Z</time></trkpt>
<trkpt lat="46.72095600" lon="7.24574400"><ele>867.727051</ele><time>2009-06-15T21:15:00Z</time></trkpt>
<trkpt lat="46.71992500" lon="7.24573800"><ele>866.765869</ele><time>2009-06-15T21:15:00Z</time></trkpt>
<trkpt lat="46.71951800" lon="7.24498600"><ele>867.727051</ele><time>2009-06-15T21:15:00Z</time></trkpt>
<trkpt lat="46.71912100" lon="7.24472200"><ele>873.495117</ele><time>2009-06-15T21:15:00Z</time></trkpt>
<trkpt lat="46.71893400" lon="7.24466500"><ele>876.859863</ele><time>2009-06-15T21:15:00Z</time></trkpt>
<trkpt lat="46.71888100" lon="7.24474200"><ele>877.821045</ele><time>2009-06-15T21:15:00Z</time></trkpt>
<trkpt lat="46.71912800" lon="7.24547500"><ele>883.108154</ele><time>2009-06-15T21:15:00Z</time></trkpt>
<trkpt lat="46.71926400" lon="7.24637300"><ele>888.876221</ele><time>2009-06-15T21:15:00Z</time></trkpt>
<trkpt lat="46.71996900" lon="7.24698700"><ele>891.76001</ele><time>2009-06-15T21:15:00Z</time></trkpt>
<trkpt lat="46.71973300" lon="7.24708800"><ele>895.605469</ele><time>2009-06-15T21:15:00Z</time></trkpt>
<trkpt lat="46.71953500" lon="7.24694000"><ele>900.892578</ele><time>2009-06-15T21:15:00Z</time></trkpt>
<trkpt lat="46.71913400" lon="7.24708100"><ele>909.544678</ele><time>2009-06-15T21:15:00Z</time></trkpt>
<trkpt lat="46.71912200" lon="7.24739700"><ele>915.793213</ele><time>2009-06-15T21:15:00Z</time></trkpt>
<trkpt lat="46.71891500" lon="7.24758000"><ele>918.196289</ele><time>2009-06-15T21:15:00Z</time></trkpt>
<trkpt lat="46.71892200" lon="7.24792300"><ele>921.080322</ele><time>2009-06-15T21:15:00Z</time></trkpt>
<trkpt lat="46.71908200" lon="7.24812000"><ele>924.925781</ele><time>2009-06-15T21:15:00Z</time></trkpt>
<trkpt lat="46.71925500" lon="7.24813300"><ele>928.290283</ele><time>2009-06-15T21:15:00Z</time></trkpt>
<trkpt lat="46.71940000" lon="7.24842700"><ele>929.251465</ele><time>2009-06-15T21:15:00Z</time></trkpt>
<trkpt lat="46.71966400" lon="7.24865300"><ele>930.212891</ele><time>2009-06-15T21:15:00Z</time></trkpt>
<trkpt lat="46.72055400" lon="7.24918500"><ele>926.848389</ele><time>2009-06-15T21:15:00Z</time></trkpt>
<trkpt lat="46.72124600" lon="7.24941200"><ele>926.848389</ele><time>2009-06-15T21:15:00Z</time></trkpt>
<trkpt lat="46.72160800" lon="7.24961500"><ele>923.483643</ele><time>2009-06-15T21:15:00Z</time></trkpt>
<trkpt lat="46.72168700" lon="7.24971200"><ele>927.329102</ele><time>2009-06-15T21:15:00Z</time></trkpt>
<trkpt lat="46.72169600" lon="7.24981300"><ele>928.770996</ele><time>2009-06-15T21:15:00Z</time></trkpt>
<trkpt lat="46.72151400" lon="7.24996900"><ele>931.654785</ele><time>2009-06-15T21:15:00Z</time></trkpt>
<trkpt lat="46.72167400" lon="7.25020700"><ele>939.345215</ele><time>2009-06-15T21:15:00Z</time></trkpt>
<trkpt lat="46.72159100" lon="7.25040900"><ele>939.825928</ele><time>2009-06-15T21:15:00Z</time></trkpt>
<trkpt lat="46.72168600" lon="7.25062200"><ele>940.306885</ele><time>2009-06-15T21:15:00Z</time></trkpt>
<trkpt lat="46.72236500" lon="7.25132900"><ele>946.55542</ele><time>2009-06-15T21:15:00Z</time></trkpt>
<trkpt lat="46.72259800" lon="7.25195300"><ele>949.439209</ele><time>2009-06-15T21:15:00Z</time></trkpt>
<trkpt lat="46.72269600" lon="7.25252300"><ele>952.322998</ele><time>2009-06-15T21:15:00Z</time></trkpt>
<trkpt lat="46.72295600" lon="7.25292300"><ele>955.687744</ele><time>2009-06-15T21:15:00Z</time></trkpt>
<trkpt lat="46.72345200" lon="7.25329200"><ele>960.494385</ele><time>2009-06-15T21:15:00Z</time></trkpt>
<trkpt lat="46.72364900" lon="7.25379200"><ele>962.416992</ele><time>2009-06-15T21:15:00Z</time></trkpt>
<trkpt lat="46.72391900" lon="7.25639200"><ele>981.162842</ele><time>2009-06-15T21:15:00Z</time></trkpt>
<trkpt lat="46.72408500" lon="7.25676100"><ele>984.046631</ele><time>2009-06-15T21:15:00Z</time></trkpt>
<trkpt lat="46.72427700" lon="7.25707300"><ele>987.891846</ele><time>2009-06-15T21:15:00Z</time></trkpt>
<trkpt lat="46.72470100" lon="7.25731600"><ele>992.218018</ele><time>2009-06-15T21:15:00Z</time></trkpt>
<trkpt lat="46.72504100" lon="7.25767000"><ele>995.101807</ele><time>2009-06-15T21:15:00Z</time></trkpt>
<trkpt lat="46.72536400" lon="7.25814600"><ele>997.98584</ele><time>2009-06-15T21:15:00Z</time></trkpt>
<trkpt lat="46.72550500" lon="7.25858900"><ele>998.947021</ele><time>2009-06-15T21:15:00Z</time></trkpt>
<trkpt lat="46.72576400" lon="7.25849500"><ele>997.024414</ele><time>2009-06-15T21:15:00Z</time></trkpt>
<trkpt lat="46.72624400" lon="7.25869400"><ele>990.29541</ele><time>2009-06-15T21:15:00Z</time></trkpt>
<trkpt lat="46.72656500" lon="7.25893000"><ele>984.527344</ele><time>2009-06-15T21:15:00Z</time></trkpt>
<trkpt lat="46.72683500" lon="7.25982400"><ele>978.759521</ele><time>2009-06-15T21:15:00Z</time></trkpt>
<trkpt lat="46.72709400" lon="7.26009800"><ele>975.394775</ele><time>2009-06-15T21:15:00Z</time></trkpt>
<trkpt lat="46.72712900" lon="7.26042200"><ele>972.510986</ele><time>2009-06-15T21:15:00Z</time></trkpt>
<trkpt lat="46.72749400" lon="7.26099100"><ele>967.704102</ele><time>2009-06-15T21:15:00Z</time></trkpt>
<trkpt lat="46.72775800" lon="7.26186100"><ele>959.533203</ele><time>2009-06-15T21:15:00Z</time></trkpt>
<trkpt lat="46.72832300" lon="7.26207700"><ele>954.726318</ele><time>2009-06-15T21:15:00Z</time></trkpt>
<trkpt lat="46.72881600" lon="7.26253000"><ele>950.881104</ele><time>2009-06-15T21:15:00Z</time></trkpt>
<trkpt lat="46.72893500" lon="7.26276600"><ele>947.516602</ele><time>2009-06-15T21:15:00Z</time></trkpt>
<trkpt lat="46.72942400" lon="7.26394500"><ele>940.787354</ele><time>2009-06-15T21:15:00Z</time></trkpt>
<trkpt lat="46.72951400" lon="7.26466700"><ele>934.538818</ele><time>2009-06-15T21:15:00Z</time></trkpt>
<trkpt lat="46.72977600" lon="7.26521300"><ele>929.732178</ele><time>2009-06-15T21:15:00Z</time></trkpt>
<trkpt lat="46.72986400" lon="7.26562500"><ele>927.80957</ele><time>2009-06-15T21:15:00Z</time></trkpt>
<trkpt lat="46.72987700" lon="7.26602900"><ele>929.251465</ele><time>2009-06-15T21:15:00Z</time></trkpt>
<trkpt lat="46.73005600" lon="7.26592900"><ele>930.693604</ele><time>2009-06-15T21:15:00Z</time></trkpt>
<trkpt lat="46.73019500" lon="7.26620800"><ele>932.135498</ele><time>2009-06-15T21:15:00Z</time></trkpt>
<trkpt lat="46.73021800" lon="7.26586800"><ele>933.09668</ele><time>2009-06-15T21:15:00Z</time></trkpt>
<trkpt lat="46.73044300" lon="7.26722100"><ele>935.019531</ele><time>2009-06-15T21:15:00Z</time></trkpt>
<trkpt lat="46.73040600" lon="7.26807300"><ele>937.422607</ele><time>2009-06-15T21:15:00Z</time></trkpt>
<trkpt lat="46.73007800" lon="7.26895000"><ele>941.748779</ele><time>2009-06-15T21:15:00Z</time></trkpt>
<trkpt lat="46.72936000" lon="7.27015200"><ele>946.074707</ele><time>2009-06-15T21:15:00Z</time></trkpt>
<trkpt lat="46.72926800" lon="7.27095800"><ele>948.958496</ele><time>2009-06-15T21:15:00Z</time></trkpt>
<trkpt lat="46.72894400" lon="7.27117000"><ele>946.55542</ele><time>2009-06-15T21:15:00Z</time></trkpt>
<trkpt lat="46.72868400" lon="7.27154200"><ele>946.074707</ele><time>2009-06-15T21:15:00Z</time></trkpt>
<trkpt lat="46.72852000" lon="7.27202600"><ele>949.439209</ele><time>2009-06-15T21:15:00Z</time></trkpt>
<trkpt lat="46.72860000" lon="7.27238500"><ele>948.477783</ele><time>2009-06-15T21:15:00Z</time></trkpt>
<trkpt lat="46.72853600" lon="7.27296600"><ele>945.113281</ele><time>2009-06-15T21:15:00Z</time></trkpt>
<trkpt lat="46.72858500" lon="7.27339600"><ele>943.671387</ele><time>2009-06-15T21:15:00Z</time></trkpt>
<trkpt lat="46.72904500" lon="7.27440000"><ele>936.461426</ele><time>2009-06-15T21:15:00Z</time></trkpt>
<trkpt lat="46.72961400" lon="7.27628900"><ele>926.848389</ele><time>2009-06-15T21:15:00Z</time></trkpt>
<trkpt lat="46.72965100" lon="7.27707100"><ele>924.445068</ele><time>2009-06-15T21:15:00Z</time></trkpt>
<trkpt lat="46.72980400" lon="7.27844200"><ele>933.577393</ele><time>2009-06-15T21:15:00Z</time></trkpt>
<trkpt lat="46.72969500" lon="7.27907400"><ele>936.941895</ele><time>2009-06-15T21:15:00Z</time></trkpt>
<trkpt lat="46.72941300" lon="7.27954200"><ele>935.980713</ele><time>2009-06-15T21:15:00Z</time></trkpt>
<trkpt lat="46.72955800" lon="7.28010700"><ele>933.09668</ele><time>2009-06-15T21:15:00Z</time></trkpt>
<trkpt lat="46.72988800" lon="7.28017900"><ele>933.577393</ele><time>2009-06-15T21:15:00Z</time></trkpt>
<trkpt lat="46.73031000" lon="7.28052700"><ele>930.693604</ele><time>2009-06-15T21:15:00Z</time></trkpt>
<trkpt lat="46.73054200" lon="7.28114400"><ele>928.770996</ele><time>2009-06-15T21:15:00Z</time></trkpt>
<trkpt lat="46.73055600" lon="7.28155800"><ele>925.40625</ele><time>2009-06-15T21:15:00Z</time></trkpt>
<trkpt lat="46.73071600" lon="7.28195600"><ele>920.599609</ele><time>2009-06-15T21:15:00Z</time></trkpt>
<trkpt lat="46.73123900" lon="7.28228300"><ele>913.870361</ele><time>2009-06-15T21:15:00Z</time></trkpt>
<trkpt lat="46.73259500" lon="7.28438000"><ele>908.583252</ele><time>2009-06-15T21:15:00Z</time></trkpt>
<trkpt lat="46.73299200" lon="7.28457000"><ele>907.141113</ele><time>2009-06-15T21:15:00Z</time></trkpt>
<trkpt lat="46.73321500" lon="7.28456600"><ele>904.737793</ele><time>2009-06-15T21:15:00Z</time></trkpt>
<trkpt lat="46.73361100" lon="7.28472700"><ele>900.412109</ele><time>2009-06-15T21:15:00Z</time></trkpt>
<trkpt lat="46.73374800" lon="7.28466800"><ele>900.892578</ele><time>2009-06-15T21:15:00Z</time></trkpt>
<trkpt lat="46.73420000" lon="7.28559100"><ele>903.295898</ele><time>2009-06-15T21:15:00Z</time></trkpt>
<trkpt lat="46.73427800" lon="7.28655300"><ele>900.412109</ele><time>2009-06-15T21:15:00Z</time></trkpt>
<trkpt lat="46.73409600" lon="7.28682300"><ele>900.412109</ele><time>2009-06-15T21:15:00Z</time></trkpt>
<trkpt lat="46.73372600" lon="7.28712100"><ele>895.605469</ele><time>2009-06-15T21:15:00Z</time></trkpt>
<trkpt lat="46.73324600" lon="7.28775900"><ele>895.124756</ele><time>2009-06-15T21:15:00Z</time></trkpt>
<trkpt lat="46.73295100" lon="7.28788300"><ele>891.279297</ele><time>2009-06-15T21:15:00Z</time></trkpt>
<trkpt lat="46.73261800" lon="7.28771600"><ele>887.434082</ele><time>2009-06-15T21:15:00Z</time></trkpt>
<trkpt lat="46.73275400" lon="7.28795700"><ele>885.511475</ele><time>2009-06-15T21:15:00Z</time></trkpt>
<trkpt lat="46.73264500" lon="7.28809100"><ele>884.06958</ele><time>2009-06-15T21:15:00Z</time></trkpt>
<trkpt lat="46.73213000" lon="7.28775900"><ele>877.340576</ele><time>2009-06-15T21:15:00Z</time></trkpt>
<trkpt lat="46.73171000" lon="7.28706000"><ele>873.975586</ele><time>2009-06-15T21:15:00Z</time></trkpt>
<trkpt lat="46.73156700" lon="7.28720400"><ele>873.495117</ele><time>2009-06-15T21:15:00Z</time></trkpt>
<trkpt lat="46.73215000" lon="7.28889300"><ele>868.688477</ele><time>2009-06-15T21:15:00Z</time></trkpt>
<trkpt lat="46.73223400" lon="7.28939100"><ele>868.688477</ele><time>2009-06-15T21:15:00Z</time></trkpt>
<trkpt lat="46.73251900" lon="7.28960100"><ele>864.843262</ele><time>2009-06-15T21:15:00Z</time></trkpt>
<trkpt lat="46.73381400" lon="7.28924300"><ele>861.959473</ele><time>2009-06-15T21:15:00Z</time></trkpt>
<trkpt lat="46.73623600" lon="7.28815800"><ele>859.555908</ele><time>2009-06-15T21:15:00Z</time></trkpt>
<trkpt lat="46.73812400" lon="7.28813000"><ele>853.307373</ele><time>2009-06-15T21:15:00Z</time></trkpt>
<trkpt lat="46.73868800" lon="7.28777800"><ele>851.384766</ele><time>2009-06-15T21:15:00Z</time></trkpt>
<trkpt lat="46.73930700" lon="7.28763000"><ele>854.749268</ele><time>2009-06-15T21:15:00Z</time></trkpt>
<trkpt lat="46.73977000" lon="7.28703300"><ele>853.307373</ele><time>2009-06-15T21:15:00Z</time></trkpt>
<trkpt lat="46.74071500" lon="7.28613100"><ele>851.384766</ele><time>2009-06-15T21:15:00Z</time></trkpt>
<trkpt lat="46.74153600" lon="7.28520100"><ele>848.981445</ele><time>2009-06-15T21:15:00Z</time></trkpt>
<trkpt lat="46.74192000" lon="7.28537500"><ele>851.384766</ele><time>2009-06-15T21:15:00Z</time></trkpt>
<trkpt lat="46.74210900" lon="7.28502500"><ele>849.462158</ele><time>2009-06-15T21:15:00Z</time></trkpt>
<trkpt lat="46.74233100" lon="7.28483100"><ele>850.423584</ele><time>2009-06-15T21:15:00Z</time></trkpt>
<trkpt lat="46.74263200" lon="7.28473800"><ele>851.384766</ele><time>2009-06-15T21:15:00Z</time></trkpt>
<trkpt lat="46.74343600" lon="7.28492100"><ele>851.865479</ele><time>2009-06-15T21:15:00Z</time></trkpt>
<trkpt lat="46.74404300" lon="7.28553400"><ele>852.82666</ele><time>2009-06-15T21:15:00Z</time></trkpt>
<trkpt lat="46.74428500" lon="7.28617700"><ele>854.268799</ele><time>2009-06-15T21:15:00Z</time></trkpt>
<trkpt lat="46.74455600" lon="7.28777700"><ele>855.22998</ele><time>2009-06-15T21:15:00Z</time></trkpt>
<trkpt lat="46.74475400" lon="7.28826200"><ele>855.22998</ele><time>2009-06-15T21:15:00Z</time></trkpt>
<trkpt lat="46.74684800" lon="7.29014600"><ele>849.462158</ele><time>2009-06-15T21:15:00Z</time></trkpt>
<trkpt lat="46.74768800" lon="7.29106800"><ele>848.020264</ele><time>2009-06-15T21:15:00Z</time></trkpt>
<trkpt lat="46.74871500" lon="7.29203700"><ele>839.368164</ele><time>2009-06-15T21:15:00Z</time></trkpt>
<trkpt lat="46.74960600" lon="7.29228800"><ele>846.097656</ele><time>2009-06-15T21:15:00Z</time></trkpt>
<trkpt lat="46.74981400" lon="7.29256800"><ele>846.578369</ele><time>2009-06-15T21:15:00Z</time></trkpt>
<trkpt lat="46.75090700" lon="7.29350600"><ele>846.578369</ele><time>2009-06-15T21:15:00Z</time></trkpt>
<trkpt lat="46.75128200" lon="7.29375100"><ele>848.500732</ele><time>2009-06-15T21:15:00Z</time></trkpt>
<trkpt lat="46.75317400" lon="7.29386500"><ele>854.268799</ele><time>2009-06-15T21:15:00Z</time></trkpt>
<trkpt lat="46.75336400" lon="7.29371500"><ele>855.710693</ele><time>2009-06-15T21:15:00Z</time></trkpt>
<trkpt lat="46.75359200" lon="7.29326400"><ele>858.594482</ele><time>2009-06-15T21:15:00Z</time></trkpt>
<trkpt lat="46.75418800" lon="7.29281600"><ele>864.843262</ele><time>2009-06-15T21:15:00Z</time></trkpt>
<trkpt lat="46.75404400" lon="7.29238100"><ele>867.246582</ele><time>2009-06-15T21:15:00Z</time></trkpt>
<trkpt lat="46.75419000" lon="7.29172600"><ele>867.727051</ele><time>2009-06-15T21:15:00Z</time></trkpt>
<trkpt lat="46.75424400" lon="7.29085400"><ele>866.285156</ele><time>2009-06-15T21:15:00Z</time></trkpt>
<trkpt lat="46.75414300" lon="7.29065400"><ele>868.688477</ele><time>2009-06-15T21:15:00Z</time></trkpt>
<trkpt lat="46.75387500" lon="7.29061200"><ele>872.052979</ele><time>2009-06-15T21:15:00Z</time></trkpt>
<trkpt lat="46.75355100" lon="7.29203000"><ele>871.091797</ele><time>2009-06-15T21:15:00Z</time></trkpt>
<trkpt lat="46.75323300" lon="7.29231800"><ele>872.533691</ele><time>2009-06-15T21:15:00Z</time></trkpt>
<trkpt lat="46.75301100" lon="7.29220000"><ele>875.898193</ele><time>2009-06-15T21:15:00Z</time></trkpt>
<trkpt lat="46.75291200" lon="7.29191100"><ele>881.185791</ele><time>2009-06-15T21:15:00Z</time></trkpt>
<trkpt lat="46.75265000" lon="7.29150000"><ele>883.588867</ele><time>2009-06-15T21:15:00Z</time></trkpt>
<trkpt lat="46.75189800" lon="7.28934200"><ele>902.334473</ele><time>2009-06-15T21:15:00Z</time></trkpt>
<trkpt lat="46.75195900" lon="7.28897200"><ele>903.295898</ele><time>2009-06-15T21:15:00Z</time></trkpt>
<trkpt lat="46.75180900" lon="7.28760800"><ele>911.947998</ele><time>2009-06-15T21:15:00Z</time></trkpt>
<trkpt lat="46.75151800" lon="7.28689700"><ele>918.196289</ele><time>2009-06-15T21:15:00Z</time></trkpt>
<trkpt lat="46.75132900" lon="7.28616800"><ele>929.251465</ele><time>2009-06-15T21:15:00Z</time></trkpt>
<trkpt lat="46.75091900" lon="7.28535500"><ele>937.90332</ele><time>2009-06-15T21:15:00Z</time></trkpt>
<trkpt lat="46.75067800" lon="7.28440700"><ele>942.229492</ele><time>2009-06-15T21:15:00Z</time></trkpt>
<trkpt lat="46.75020900" lon="7.28360200"><ele>942.710205</ele><time>2009-06-15T21:15:00Z</time></trkpt>
<trkpt lat="46.74977100" lon="7.28330900"><ele>942.229492</ele><time>2009-06-15T21:15:00Z</time></trkpt>
<trkpt lat="46.74932600" lon="7.28263900"><ele>941.268066</ele><time>2009-06-15T21:15:00Z</time></trkpt>
<trkpt lat="46.74910100" lon="7.28183100"><ele>934.538818</ele><time>2009-06-15T21:15:00Z</time></trkpt>
<trkpt lat="46.74887500" lon="7.28143800"><ele>933.577393</ele><time>2009-06-15T21:15:00Z</time></trkpt>
<trkpt lat="46.74840900" lon="7.28137400"><ele>932.135498</ele><time>2009-06-15T21:15:00Z</time></trkpt>
<trkpt lat="46.74825900" lon="7.28105200"><ele>930.212891</ele><time>2009-06-15T21:15:00Z</time></trkpt>
<trkpt lat="46.74771700" lon="7.27828700"><ele>947.516602</ele><time>2009-06-15T21:15:00Z</time></trkpt>
<trkpt lat="46.74768800" lon="7.27797800"><ele>949.439209</ele><time>2009-06-15T21:15:00Z</time></trkpt>
<trkpt lat="46.74778600" lon="7.27714300"><ele>955.207031</ele><time>2009-06-15T21:15:00Z</time></trkpt>
<trkpt lat="46.74677400" lon="7.27493000"><ele>979.720703</ele><time>2009-06-15T21:15:00Z</time></trkpt>
<trkpt lat="46.74614500" lon="7.27320100"><ele>984.527344</ele><time>2009-06-15T21:15:00Z</time></trkpt>
<trkpt lat="46.74592500" lon="7.27235500"><ele>987.891846</ele><time>2009-06-15T21:15:00Z</time></trkpt>
<trkpt lat="46.74592300" lon="7.27212700"><ele>989.333984</ele><time>2009-06-15T21:15:00Z</time></trkpt>
<trkpt lat="46.74607200" lon="7.27180100"><ele>993.179199</ele><time>2009-06-15T21:15:00Z</time></trkpt>
<trkpt lat="46.74582500" lon="7.27076500"><ele>997.98584</ele><time>2009-06-15T21:15:00Z</time></trkpt>
<trkpt lat="46.74576500" lon="7.26913600"><ele>1002.311523</ele><time>2009-06-15T21:15:00Z</time></trkpt>
<trkpt lat="46.74602500" lon="7.26901600"><ele>1007.599121</ele><time>2009-06-15T21:15:00Z</time></trkpt>
<trkpt lat="46.74642400" lon="7.26903200"><ele>1013.366943</ele><time>2009-06-15T21:15:00Z</time></trkpt>
<trkpt lat="46.74659900" lon="7.26971600"><ele>1020.096191</ele><time>2009-06-15T21:15:00Z</time></trkpt>
<trkpt lat="46.74668600" lon="7.26977800"><ele>1020.576904</ele><time>2009-06-15T21:15:00Z</time></trkpt>
<trkpt lat="46.74760200" lon="7.26947400"><ele>1032.593262</ele><time>2009-06-15T21:15:00Z</time></trkpt>
<trkpt lat="46.74788000" lon="7.26915800"><ele>1032.593262</ele><time>2009-06-15T21:15:00Z</time></trkpt>
<trkpt lat="46.74811800" lon="7.26846300"><ele>1033.554443</ele><time>2009-06-15T21:15:00Z</time></trkpt>
<trkpt lat="46.74878000" lon="7.26546600"><ele>1033.554443</ele><time>2009-06-15T21:15:00Z</time></trkpt>
<trkpt lat="46.74889800" lon="7.26521200"><ele>1033.554443</ele><time>2009-06-15T21:15:00Z</time></trkpt>
<trkpt lat="46.74907500" lon="7.26499400"><ele>1034.996582</ele><time>2009-06-15T21:15:00Z</time></trkpt>
<trkpt lat="46.74921500" lon="7.26506100"><ele>1035.477051</ele><time>2009-06-15T21:15:00Z</time></trkpt>
<trkpt lat="46.74966500" lon="7.26596300"><ele>1032.593262</ele><time>2009-06-15T21:15:00Z</time></trkpt>
<trkpt lat="46.74988400" lon="7.26589200"><ele>1033.554443</ele><time>2009-06-15T21:15:00Z</time></trkpt>
<trkpt lat="46.75041800" lon="7.26457600"><ele>1027.306152</ele><time>2009-06-15T21:15:00Z</time></trkpt>
<trkpt lat="46.75110500" lon="7.26401100"><ele>1020.576904</ele><time>2009-06-15T21:15:00Z</time></trkpt>
<trkpt lat="46.75187700" lon="7.26398000"><ele>1021.057617</ele><time>2009-06-15T21:15:00Z</time></trkpt>
<trkpt lat="46.75211500" lon="7.26379300"><ele>1023.460938</ele><time>2009-06-15T21:15:00Z</time></trkpt>
<trkpt lat="46.75248000" lon="7.26323000"><ele>1028.748047</ele><time>2009-06-15T21:15:00Z</time></trkpt>
<trkpt lat="46.75272300" lon="7.26306700"><ele>1032.112549</ele><time>2009-06-15T21:15:00Z</time></trkpt>
<trkpt lat="46.75305400" lon="7.26320900"><ele>1034.515869</ele><time>2009-06-15T21:15:00Z</time></trkpt>
<trkpt lat="46.75326700" lon="7.26348000"><ele>1036.919189</ele><time>2009-06-15T21:15:00Z</time></trkpt>
<trkpt lat="46.75358800" lon="7.26408000"><ele>1036.438721</ele><time>2009-06-15T21:15:00Z</time></trkpt>
<trkpt lat="46.75383100" lon="7.26477900"><ele>1037.880615</ele><time>2009-06-15T21:15:00Z</time></trkpt>
<trkpt lat="46.75495200" lon="7.26631100"><ele>1031.151367</ele><time>2009-06-15T21:15:00Z</time></trkpt>
<trkpt lat="46.75486000" lon="7.26610100"><ele>1032.593262</ele><time>2009-06-15T21:15:00Z</time></trkpt>
<trkpt lat="46.75479100" lon="7.26623700"><ele>1035.477051</ele><time>2009-06-15T21:15:00Z</time></trkpt>
<trkpt lat="46.75486200" lon="7.26642300"><ele>1037.399902</ele><time>2009-06-15T21:15:00Z</time></trkpt>
<trkpt lat="46.75485600" lon="7.26635100"><ele>1037.880615</ele><time>2009-06-15T21:15:00Z</time></trkpt>
<trkpt lat="46.75497400" lon="7.26634500"><ele>1037.880615</ele><time>2009-06-15T21:15:00Z</time></trkpt>
<trkpt lat="46.75571500" lon="7.26671900"><ele>1028.267334</ele><time>2009-06-15T21:15:00Z</time></trkpt>
<trkpt lat="46.75676500" lon="7.26701800"><ele>1028.748047</ele><time>2009-06-15T21:15:00Z</time></trkpt>
<trkpt lat="46.75742900" lon="7.26765000"><ele>1026.344727</ele><time>2009-06-15T21:15:00Z</time></trkpt>
<trkpt lat="46.75854100" lon="7.26938200"><ele>994.140625</ele><time>2009-06-15T21:15:00Z</time></trkpt>
<trkpt lat="46.75878200" lon="7.26962400"><ele>987.891846</ele><time>2009-06-15T21:15:00Z</time></trkpt>
<trkpt lat="46.75907200" lon="7.27015800"><ele>986.449951</ele><time>2009-06-15T21:15:00Z</time></trkpt>
<trkpt lat="46.75890500" lon="7.27106800"><ele>968.665527</ele><time>2009-06-15T21:15:00Z</time></trkpt>
<trkpt lat="46.75893000" lon="7.27142500"><ele>964.3396</ele><time>2009-06-15T21:15:00Z</time></trkpt>
<trkpt lat="46.75994300" lon="7.27310300"><ele>955.207031</ele><time>2009-06-15T21:15:00Z</time></trkpt>
<trkpt lat="46.76018800" lon="7.27342500"><ele>948.477783</ele><time>2009-06-15T21:15:00Z</time></trkpt>
<trkpt lat="46.76069500" lon="7.27352800"><ele>941.748779</ele><time>2009-06-15T21:15:00Z</time></trkpt>
<trkpt lat="46.76085900" lon="7.27363500"><ele>937.422607</ele><time>2009-06-15T21:15:00Z</time></trkpt>
<trkpt lat="46.76165900" lon="7.27388100"><ele>934.538818</ele><time>2009-06-15T21:15:00Z</time></trkpt>
<trkpt lat="46.76183800" lon="7.27382000"><ele>934.058105</ele><time>2009-06-15T21:15:00Z</time></trkpt>
<trkpt lat="46.76260700" lon="7.27258400"><ele>921.080322</ele><time>2009-06-15T21:15:00Z</time></trkpt>
<trkpt lat="46.76262900" lon="7.27233100"><ele>920.599609</ele><time>2009-06-15T21:15:00Z</time></trkpt>
<trkpt lat="46.76250900" lon="7.27217000"><ele>922.041504</ele><time>2009-06-15T21:15:00Z</time></trkpt>
<trkpt lat="46.76200300" lon="7.27190600"><ele>924.445068</ele><time>2009-06-15T21:15:00Z</time></trkpt>
<trkpt lat="46.76158400" lon="7.27202600"><ele>930.212891</ele><time>2009-06-15T21:15:00Z</time></trkpt>
<trkpt lat="46.76096700" lon="7.27130000"><ele>929.251465</ele><time>2009-06-15T21:15:00Z</time></trkpt>
<trkpt lat="46.76075900" lon="7.27091600"><ele>927.329102</ele><time>2009-06-15T21:15:00Z</time></trkpt>
<trkpt lat="46.76021600" lon="7.26793600"><ele>927.80957</ele><time>2009-06-15T21:15:00Z</time></trkpt>
<trkpt lat="46.76025700" lon="7.26713700"><ele>930.212891</ele><time>2009-06-15T21:15:00Z</time></trkpt>
<trkpt lat="46.76039400" lon="7.26670300"><ele>930.212891</ele><time>2009-06-15T21:15:00Z</time></trkpt>
<trkpt lat="46.76021400" lon="7.26629400"><ele>930.212891</ele><time>2009-06-15T21:15:00Z</time></trkpt>
<trkpt lat="46.76094600" lon="7.26575200"><ele>931.174316</ele><time>2009-06-15T21:15:00Z</time></trkpt>
<trkpt lat="46.76153200" lon="7.26390900"><ele>935.5</ele><time>2009-06-15T21:15:00Z</time></trkpt>
<trkpt lat="46.76177400" lon="7.26252100"><ele>933.09668</ele><time>2009-06-15T21:15:00Z</time></trkpt>
<trkpt lat="46.76206600" lon="7.26168200"><ele>933.09668</ele><time>2009-06-15T21:15:00Z</time></trkpt>
<trkpt lat="46.76237600" lon="7.26113600"><ele>931.654785</ele><time>2009-06-15T21:15:00Z</time></trkpt>
<trkpt lat="46.76250100" lon="7.26101800"><ele>927.329102</ele><time>2009-06-15T21:15:00Z</time></trkpt>
<trkpt lat="46.76280800" lon="7.26091800"><ele>922.522217</ele><time>2009-06-15T21:15:00Z</time></trkpt>
<trkpt lat="46.76359300" lon="7.26097700"><ele>923.00293</ele><time>2009-06-15T21:15:00Z</time></trkpt>
<trkpt lat="46.76412700" lon="7.26127800"><ele>920.118896</ele><time>2009-06-15T21:15:00Z</time></trkpt>
<trkpt lat="46.76428400" lon="7.26162700"><ele>917.715576</ele><time>2009-06-15T21:15:00Z</time></trkpt>
<trkpt lat="46.76437800" lon="7.26245200"><ele>904.737793</ele><time>2009-06-15T21:15:00Z</time></trkpt>
<trkpt lat="46.76538700" lon="7.26340300"><ele>888.876221</ele><time>2009-06-15T21:15:00Z</time></trkpt>
<trkpt lat="46.76582500" lon="7.26307000"><ele>886.953369</ele><time>2009-06-15T21:15:00Z</time></trkpt>
<trkpt lat="46.76617500" lon="7.26301500"><ele>886.4729</ele><time>2009-06-15T21:15:00Z</time></trkpt>
<trkpt lat="46.76620300" lon="7.26257500"><ele>885.031006</ele><time>2009-06-15T21:15:00Z</time></trkpt>
<trkpt lat="46.76607300" lon="7.26211100"><ele>883.588867</ele><time>2009-06-15T21:15:00Z</time></trkpt>
<trkpt lat="46.76631000" lon="7.26185600"><ele>883.588867</ele><time>2009-06-15T21:15:00Z</time></trkpt>
<trkpt lat="46.76631000" lon="7.26153400"><ele>888.395508</ele><time>2009-06-15T21:15:00Z</time></trkpt>
<trkpt lat="46.76535300" lon="7.26010400"><ele>891.76001</ele><time>2009-06-15T21:15:00Z</time></trkpt>
<trkpt lat="46.76481500" lon="7.25862100"><ele>894.163574</ele><time>2009-06-15T21:15:00Z</time></trkpt>
<trkpt lat="46.76461100" lon="7.25789700"><ele>884.550293</ele><time>2009-06-15T21:15:00Z</time></trkpt>
<trkpt lat="46.76400500" lon="7.25727300"><ele>887.914795</ele><time>2009-06-15T21:15:00Z</time></trkpt>
<trkpt lat="46.76417800" lon="7.25682200"><ele>888.395508</ele><time>2009-06-15T21:15:00Z</time></trkpt>
<trkpt lat="46.76435000" lon="7.25673600"><ele>892.72168</ele><time>2009-06-15T21:15:00Z</time></trkpt>
<trkpt lat="46.76549500" lon="7.25692600"><ele>892.72168</ele><time>2009-06-15T21:15:00Z</time></trkpt>
<trkpt lat="46.76658900" lon="7.25761600"><ele>898.969971</ele><time>2009-06-15T21:15:00Z</time></trkpt>
<trkpt lat="46.76675200" lon="7.25762900"><ele>897.047363</ele><time>2009-06-15T21:15:00Z</time></trkpt>
<trkpt lat="46.76727400" lon="7.25739500"><ele>889.837402</ele><time>2009-06-15T21:15:00Z</time></trkpt>
<trkpt lat="46.76809600" lon="7.25679700"><ele>885.992188</ele><time>2009-06-15T21:15:00Z</time></trkpt>
<trkpt lat="46.76836700" lon="7.25686100"><ele>887.434082</ele><time>2009-06-15T21:15:00Z</time></trkpt>
<trkpt lat="46.76865100" lon="7.25713700"><ele>882.627686</ele><time>2009-06-15T21:15:00Z</time></trkpt>
<trkpt lat="46.76883600" lon="7.25765700"><ele>877.821045</ele><time>2009-06-15T21:15:00Z</time></trkpt>
<trkpt lat="46.76896900" lon="7.25945700"><ele>878.301758</ele><time>2009-06-15T21:15:00Z</time></trkpt>
<trkpt lat="46.76931300" lon="7.26097800"><ele>874.456299</ele><time>2009-06-15T21:15:00Z</time></trkpt>
<trkpt lat="46.76934900" lon="7.26111300"><ele>874.456299</ele><time>2009-06-15T21:15:00Z</time></trkpt>
<trkpt lat="46.76986900" lon="7.26161700"><ele>872.533691</ele><time>2009-06-15T21:15:00Z</time></trkpt>
<trkpt lat="46.77062200" lon="7.26175500"><ele>873.975586</ele><time>2009-06-15T21:15:00Z</time></trkpt>
<trkpt lat="46.77101700" lon="7.26165100"><ele>873.495117</ele><time>2009-06-15T21:15:00Z</time></trkpt>
<trkpt lat="46.77223000" lon="7.26087000"><ele>872.052979</ele><time>2009-06-15T21:15:00Z</time></trkpt>
<trkpt lat="46.77345500" lon="7.25972500"><ele>877.821045</ele><time>2009-06-15T21:15:00Z</time></trkpt>
<trkpt lat="46.77358500" lon="7.25921100"><ele>880.705078</ele><time>2009-06-15T21:15:00Z</time></trkpt>
<trkpt lat="46.77349400" lon="7.25861900"><ele>882.627686</ele><time>2009-06-15T21:15:00Z</time></trkpt>
<trkpt lat="46.77305500" lon="7.25709600"><ele>882.146973</ele><time>2009-06-15T21:15:00Z</time></trkpt>
<trkpt lat="46.77301300" lon="7.25520800"><ele>876.37915</ele><time>2009-06-15T21:15:00Z</time></trkpt>
<trkpt lat="46.77289400" lon="7.25459800"><ele>880.705078</ele><time>2009-06-15T21:15:00Z</time></trkpt>
<trkpt lat="46.77309500" lon="7.25442600"><ele>877.340576</ele><time>2009-06-15T21:15:00Z</time></trkpt>
<trkpt lat="46.77311900" lon="7.25402100"><ele>875.41748</ele><time>2009-06-15T21:15:00Z</time></trkpt>
<trkpt lat="46.77242500" lon="7.25310000"><ele>882.146973</ele><time>2009-06-15T21:15:00Z</time></trkpt>
<trkpt lat="46.77220000" lon="7.25256600"><ele>885.992188</ele><time>2009-06-15T21:15:00Z</time></trkpt>
<trkpt lat="46.77184500" lon="7.25210200"><ele>889.356689</ele><time>2009-06-15T21:15:00Z</time></trkpt>
<trkpt lat="46.77167200" lon="7.25087700"><ele>894.644043</ele><time>2009-06-15T21:15:00Z</time></trkpt>
<trkpt lat="46.77159400" lon="7.24895300"><ele>902.815186</ele><time>2009-06-15T21:15:00Z</time></trkpt>
<trkpt lat="46.77143900" lon="7.24750400"><ele>913.389893</ele><time>2009-06-15T21:15:00Z</time></trkpt>
<trkpt lat="46.77095400" lon="7.24617900"><ele>920.599609</ele><time>2009-06-15T21:15:00Z</time></trkpt>
<trkpt lat="46.77068500" lon="7.24577700"><ele>923.964111</ele><time>2009-06-15T21:15:00Z</time></trkpt>
<trkpt lat="46.77027500" lon="7.24443000"><ele>927.80957</ele><time>2009-06-15T21:15:00Z</time></trkpt>
<trkpt lat="46.76971900" lon="7.24372200"><ele>925.40625</ele><time>2009-06-15T21:15:00Z</time></trkpt>
<trkpt lat="46.76968300" lon="7.24329200"><ele>923.483643</ele><time>2009-06-15T21:15:00Z</time></trkpt>
<trkpt lat="46.76993300" lon="7.24231500"><ele>916.273682</ele><time>2009-06-15T21:15:00Z</time></trkpt>
<trkpt lat="46.77023500" lon="7.24076900"><ele>913.870361</ele><time>2009-06-15T21:15:00Z</time></trkpt>
<trkpt lat="46.77025100" lon="7.23976800"><ele>917.235107</ele><time>2009-06-15T21:15:00Z</time></trkpt>
<trkpt lat="46.77138000" lon="7.23943900"><ele>915.793213</ele><time>2009-06-15T21:15:00Z</time></trkpt>
<trkpt lat="46.77206500" lon="7.23956800"><ele>910.505859</ele><time>2009-06-15T21:15:00Z</time></trkpt>
<trkpt lat="46.77232200" lon="7.23955600"><ele>903.295898</ele><time>2009-06-15T21:15:00Z</time></trkpt>
<trkpt lat="46.77277000" lon="7.23937700"><ele>895.124756</ele><time>2009-06-15T21:15:00Z</time></trkpt>
<trkpt lat="46.77308900" lon="7.23940600"><ele>890.798584</ele><time>2009-06-15T21:15:00Z</time></trkpt>
<trkpt lat="46.77329800" lon="7.23954600"><ele>886.4729</ele><time>2009-06-15T21:15:00Z</time></trkpt>
<trkpt lat="46.77360900" lon="7.23955200"><ele>881.185791</ele><time>2009-06-15T21:15:00Z</time></trkpt>
<trkpt lat="46.77391600" lon="7.23943700"><ele>878.782471</ele><time>2009-06-15T21:15:00Z</time></trkpt>
<trkpt lat="46.77529900" lon="7.23840400"><ele>853.788086</ele><time>2009-06-15T21:15:00Z</time></trkpt>
<trkpt lat="46.77656300" lon="7.23859200"><ele>835.522949</ele><time>2009-06-15T21:15:00Z</time></trkpt>
<trkpt lat="46.77756100" lon="7.23856200"><ele>821.103271</ele><time>2009-06-15T21:15:00Z</time></trkpt>
<trkpt lat="46.77819700" lon="7.23853100"><ele>820.622559</ele><time>2009-06-15T21:15:00Z</time></trkpt>
<trkpt lat="46.77891500" lon="7.23960400"><ele>815.816162</ele><time>2009-06-15T21:15:00Z</time></trkpt>
<trkpt lat="46.77934600" lon="7.24111100"><ele>815.335449</ele><time>2009-06-15T21:15:00Z</time></trkpt>
<trkpt lat="46.77967800" lon="7.24149300"><ele>816.296631</ele><time>2009-06-15T21:15:00Z</time></trkpt>
<trkpt lat="46.78004700" lon="7.24155900"><ele>816.777344</ele><time>2009-06-15T21:15:00Z</time></trkpt>
<trkpt lat="46.78038100" lon="7.24136100"><ele>816.777344</ele><time>2009-06-15T21:15:00Z</time></trkpt>
<trkpt lat="46.78107100" lon="7.24049900"><ele>807.164063</ele><time>2009-06-15T21:15:00Z</time></trkpt>
<trkpt lat="46.78134400" lon="7.23896400"><ele>797.070313</ele><time>2009-06-15T21:15:00Z</time></trkpt>
<trkpt lat="46.78177500" lon="7.23809100"><ele>788.418457</ele><time>2009-06-15T21:15:00Z</time></trkpt>
<trkpt lat="46.78194100" lon="7.23735900"><ele>784.573242</ele><time>2009-06-15T21:15:00Z</time></trkpt>
<trkpt lat="46.78195300" lon="7.23686900"><ele>781.689209</ele><time>2009-06-15T21:15:00Z</time></trkpt>
<trkpt lat="46.78187100" lon="7.23551300"><ele>778.324463</ele><time>2009-06-15T21:15:00Z</time></trkpt>
<trkpt lat="46.78193100" lon="7.23514100"><ele>775.921143</ele><time>2009-06-15T21:15:00Z</time></trkpt>
<trkpt lat="46.78050900" lon="7.23297700"><ele>764.385498</ele><time>2009-06-15T21:15:00Z</time></trkpt>
<trkpt lat="46.78066700" lon="7.23246000"><ele>763.904541</ele><time>2009-06-15T21:15:00Z</time></trkpt>
<trkpt lat="46.78096600" lon="7.23214800"><ele>762.462646</ele><time>2009-06-15T21:15:00Z</time></trkpt>
<trkpt lat="46.78158300" lon="7.23140800"><ele>773.518066</ele><time>2009-06-15T21:15:00Z</time></trkpt>
<trkpt lat="46.78163700" lon="7.23082700"><ele>774.479248</ele><time>2009-06-15T21:15:00Z</time></trkpt>
<trkpt lat="46.78185100" lon="7.23061800"><ele>777.363281</ele><time>2009-06-15T21:15:00Z</time></trkpt>
<trkpt lat="46.78453000" lon="7.22998400"><ele>783.131104</ele><time>2009-06-15T21:15:00Z</time></trkpt>
<trkpt lat="46.78504200" lon="7.22980300"><ele>786.49585</ele><time>2009-06-15T21:15:00Z</time></trkpt>
<trkpt lat="46.78546600" lon="7.23016700"><ele>790.821533</ele><time>2009-06-15T21:15:00Z</time></trkpt>
<trkpt lat="46.78567200" lon="7.23022300"><ele>786.015137</ele><time>2009-06-15T21:15:00Z</time></trkpt>
<trkpt lat="46.78607300" lon="7.23009700"><ele>783.611816</ele><time>2009-06-15T21:15:00Z</time></trkpt>
<trkpt lat="46.78637900" lon="7.22988700"><ele>782.169922</ele><time>2009-06-15T21:15:00Z</time></trkpt>
<trkpt lat="46.78656100" lon="7.22951300"><ele>779.766357</ele><time>2009-06-15T21:15:00Z</time></trkpt>
<trkpt lat="46.78646000" lon="7.22913900"><ele>781.20874</ele><time>2009-06-15T21:15:00Z</time></trkpt>
<trkpt lat="46.78653700" lon="7.22868500"><ele>769.672852</ele><time>2009-06-15T21:15:00Z</time></trkpt>
<trkpt lat="46.78663300" lon="7.22864200"><ele>761.982178</ele><time>2009-06-15T21:15:00Z</time></trkpt>
<trkpt lat="46.78701500" lon="7.22819700"><ele>750.927002</ele><time>2009-06-15T21:15:00Z</time></trkpt>
<trkpt lat="46.78796700" lon="7.22748700"><ele>739.391113</ele><time>2009-06-15T21:15:00Z</time></trkpt>
<trkpt lat="46.78812900" lon="7.22719400"><ele>740.352539</ele><time>2009-06-15T21:15:00Z</time></trkpt>
<trkpt lat="46.78802700" lon="7.22680600"><ele>740.833008</ele><time>2009-06-15T21:15:00Z</time></trkpt>
<trkpt lat="46.78715600" lon="7.22487400"><ele>746.601074</ele><time>2009-06-15T21:15:00Z</time></trkpt>
<trkpt lat="46.78672000" lon="7.22437900"><ele>750.446533</ele><time>2009-06-15T21:15:00Z</time></trkpt>
<trkpt lat="46.78578900" lon="7.22390200"><ele>755.25293</ele><time>2009-06-15T21:15:00Z</time></trkpt>
<trkpt lat="46.78496600" lon="7.22319600"><ele>754.291748</ele><time>2009-06-15T21:15:00Z</time></trkpt>
<trkpt lat="46.78482200" lon="7.22312800"><ele>754.772217</ele><time>2009-06-15T21:15:00Z</time></trkpt>
<trkpt lat="46.78411100" lon="7.22316300"><ele>759.578857</ele><time>2009-06-15T21:15:00Z</time></trkpt>
<trkpt lat="46.78402000" lon="7.22297400"><ele>759.578857</ele><time>2009-06-15T21:15:00Z</time></trkpt>
<trkpt lat="46.78388500" lon="7.22213300"><ele>749.96582</ele><time>2009-06-15T21:15:00Z</time></trkpt>
<trkpt lat="46.78361300" lon="7.22114700"><ele>748.043213</ele><time>2009-06-15T21:15:00Z</time></trkpt>
<trkpt lat="46.78395900" lon="7.21720000"><ele>741.313721</ele><time>2009-06-15T21:15:00Z</time></trkpt>
<trkpt lat="46.78417200" lon="7.21607400"><ele>738.429932</ele><time>2009-06-15T21:15:00Z</time></trkpt>
<trkpt lat="46.78430800" lon="7.21576200"><ele>736.507324</ele><time>2009-06-15T21:15:00Z</time></trkpt>
<trkpt lat="46.78434200" lon="7.21489400"><ele>731.219971</ele><time>2009-06-15T21:15:00Z</time></trkpt>
<trkpt lat="46.78418900" lon="7.21444400"><ele>729.297119</ele><time>2009-06-15T21:15:00Z</time></trkpt>
<trkpt lat="46.78403300" lon="7.21423800"><ele>728.81665</ele><time>2009-06-15T21:15:00Z</time></trkpt>
<trkpt lat="46.78362300" lon="7.21423700"><ele>726.894043</ele><time>2009-06-15T21:15:00Z</time></trkpt>
<trkpt lat="46.78306700" lon="7.21482400"><ele>721.606689</ele><time>2009-06-15T21:15:00Z</time></trkpt>
<trkpt lat="46.78229800" lon="7.21501800"><ele>716.800293</ele><time>2009-06-15T21:15:00Z</time></trkpt>
<trkpt lat="46.78175400" lon="7.21590800"><ele>712.954834</ele><time>2009-06-15T21:15:00Z</time></trkpt>
<trkpt lat="46.78087900" lon="7.21638700"><ele>709.590332</ele><time>2009-06-15T21:15:00Z</time></trkpt>
<trkpt lat="46.78043400" lon="7.21717200"><ele>715.838867</ele><time>2009-06-15T21:15:00Z</time></trkpt>
<trkpt lat="46.78019400" lon="7.21723300"><ele>719.203613</ele><time>2009-06-15T21:15:00Z</time></trkpt>
<trkpt lat="46.78011900" lon="7.21704800"><ele>719.203613</ele><time>2009-06-15T21:15:00Z</time></trkpt>
<trkpt lat="46.78010500" lon="7.21600600"><ele>713.435547</ele><time>2009-06-15T21:15:00Z</time></trkpt>
<trkpt lat="46.78031000" lon="7.21547200"><ele>712.954834</ele><time>2009-06-15T21:15:00Z</time></trkpt>
<trkpt lat="46.78066000" lon="7.21519700"><ele>710.070801</ele><time>2009-06-15T21:15:00Z</time></trkpt>
<trkpt lat="46.78110700" lon="7.21520100"><ele>708.148438</ele><time>2009-06-15T21:15:00Z</time></trkpt>
<trkpt lat="46.78144600" lon="7.21468500"><ele>710.551514</ele><time>2009-06-15T21:15:00Z</time></trkpt>
<trkpt lat="46.78156400" lon="7.21418800"><ele>715.358154</ele><time>2009-06-15T21:15:00Z</time></trkpt>
<trkpt lat="46.78184300" lon="7.21373100"><ele>720.164795</ele><time>2009-06-15T21:15:00Z</time></trkpt>
<trkpt lat="46.78221500" lon="7.21350500"><ele>724.490723</ele><time>2009-06-15T21:15:00Z</time></trkpt>
<trkpt lat="46.78244200" lon="7.21319800"><ele>724.490723</ele><time>2009-06-15T21:15:00Z</time></trkpt>
<trkpt lat="46.78261600" lon="7.21277600"><ele>719.203613</ele><time>2009-06-15T21:15:00Z</time></trkpt>
<trkpt lat="46.78314400" lon="7.21165600"><ele>724.971436</ele><time>2009-06-15T21:15:00Z</time></trkpt>
<trkpt lat="46.78339300" lon="7.21073300"><ele>730.258545</ele><time>2009-06-15T21:15:00Z</time></trkpt>
<trkpt lat="46.78350800" lon="7.20983500"><ele>731.219971</ele><time>2009-06-15T21:15:00Z</time></trkpt>
<trkpt lat="46.78368100" lon="7.20925200"><ele>731.700439</ele><time>2009-06-15T21:15:00Z</time></trkpt>
<trkpt lat="46.78319400" lon="7.20873000"><ele>734.584717</ele><time>2009-06-15T21:15:00Z</time></trkpt>
<trkpt lat="46.78298800" lon="7.20839000"><ele>729.777832</ele><time>2009-06-15T21:15:00Z</time></trkpt>
<trkpt lat="46.78233500" lon="7.20787000"><ele>721.126221</ele><time>2009-06-15T21:15:00Z</time></trkpt>
<trkpt lat="46.78206000" lon="7.20758700"><ele>721.606689</ele><time>2009-06-15T21:15:00Z</time></trkpt>
<trkpt lat="46.78165800" lon="7.20747300"><ele>721.126221</ele><time>2009-06-15T21:15:00Z</time></trkpt>
<trkpt lat="46.78127700" lon="7.20721200"><ele>722.568115</ele><time>2009-06-15T21:15:00Z</time></trkpt>
<trkpt lat="46.77989700" lon="7.20683200"><ele>721.606689</ele><time>2009-06-15T21:15:00Z</time></trkpt>
<trkpt lat="46.77857300" lon="7.20688400"><ele>718.7229</ele><time>2009-06-15T21:15:00Z</time></trkpt>
<trkpt lat="46.77823300" lon="7.20669500"><ele>709.109619</ele><time>2009-06-15T21:15:00Z</time></trkpt>
<trkpt lat="46.77794100" lon="7.20664600"><ele>707.187012</ele><time>2009-06-15T21:15:00Z</time></trkpt>
<trkpt lat="46.77720400" lon="7.20709800"><ele>711.512939</ele><time>2009-06-15T21:15:00Z</time></trkpt>
<trkpt lat="46.77672500" lon="7.20763200"><ele>715.838867</ele><time>2009-06-15T21:15:00Z</time></trkpt>
<trkpt lat="46.77569200" lon="7.20804700"><ele>720.645508</ele><time>2009-06-15T21:15:00Z</time></trkpt>
<trkpt lat="46.77500400" lon="7.20753400"><ele>732.181396</ele><time>2009-06-15T21:15:00Z</time></trkpt>
<trkpt lat="46.77434400" lon="7.20747300"><ele>739.391113</ele><time>2009-06-15T21:15:00Z</time></trkpt>
<trkpt lat="46.77392500" lon="7.20709600"><ele>745.639648</ele><time>2009-06-15T21:15:00Z</time></trkpt>
<trkpt lat="46.77396600" lon="7.20696500"><ele>745.639648</ele><time>2009-06-15T21:15:00Z</time></trkpt>
<trkpt lat="46.77426600" lon="7.20670000"><ele>749.004395</ele><time>2009-06-15T21:15:00Z</time></trkpt>
<trkpt lat="46.77435000" lon="7.20623000"><ele>749.004395</ele><time>2009-06-15T21:15:00Z</time></trkpt>
<trkpt lat="46.77379000" lon="7.20347700"><ele>748.523682</ele><time>2009-06-15T21:15:00Z</time></trkpt>
<trkpt lat="46.77366200" lon="7.20306700"><ele>752.849609</ele><time>2009-06-15T21:15:00Z</time></trkpt>
<trkpt lat="46.77019100" lon="7.19688000"><ele>711.512939</ele><time>2009-06-15T21:15:00Z</time></trkpt>
</trkseg></trk></gpx>